Preview of NWS' New Version of Forecast
This preview is not operational and should not be used for support decisions.

Regional Weather Roundup (RWR)

Issued by National Weather Service (NWS)

                            
000
ASUS43 KDTX 201210
RWRMI 
MICHIGAN HOURLY REGIONAL WEATHER ROUNDUP
NATIONAL WEATHER SERVICE DETROIT/PONTIAC MI
800 AM EDT THU JUN 20 2019

NOTE: "FAIR" INDICATES FEW OR NO CLOUDS BELOW 12,000 FEET WITH NO
SIGNIFICANT WEATHER AND/OR OBSTRUCTION TO VISIBILITY.

MIZ047>049-052>055-059>063-066>070-074>076-081>083-201300-
SOUTHEAST LOWER MICHIGAN
  
CITY           SKY/WX    TMP DP  RH WIND       PRES   REMARKS
ADRIAN         LGT RAIN  62  61  96 E7        29.60R FOG              
6HR MIN TEMP:  62; 6HR MAX TEMP:  66; 6HR PCP:  0.23;                

ALMA           RAIN      60  58  94 NE8       29.66S                  
6HR MIN TEMP:  59; 6HR MAX TEMP:  61;                                

ANN ARBOR      HVY RAIN  63  62  97 NE5       29.60S VSB 3/4          
BAD AXE        DRIZZLE   58  57  95 NE10G16   29.65F                  
6HR MIN TEMP:  56; 6HR MAX TEMP:  58;                                

CARO           RAIN      58  57  97 CALM      29.64F                  
DETROIT CITY   CLOUDY    64  60  87 NE5       29.61R                  
6HR MIN TEMP:  62; 6HR MAX TEMP:  65; 6HR PCP:  0.01;                

DETROIT        LGT RAIN  64  60  87 N6        29.61R FOG              
6HR MIN TEMP:  64; 6HR MAX TEMP:  67; 6HR PCP: TRACE;                

FLINT          CLOUDY    60  57  89 NE7       29.63F                  
6HR MIN TEMP:  60; 6HR MAX TEMP:  63; 6HR PCP:  0.18;                

GROSSE ILE     RAIN      62  61  94 NE5       29.60R                  
6HR MIN TEMP:  62; 6HR MAX TEMP:  63;                                

HILLSDALE      LGT RAIN  62  60  94 E8        29.59R                  
6HR MIN TEMP:  62; 6HR MAX TEMP:  64; 6HR PCP:  0.67;                

HOWELL         RAIN      60  58  92 CALM      29.63R                  
6HR MIN TEMP:  60; 6HR MAX TEMP:  64; 6HR PCP:  0.12;                


CITY           SKY/WX    TMP DP  RH WIND       PRES   REMARKS
JACKSON        LGT RAIN  62  62 100 N7        29.60S FOG              
6HR MIN TEMP:  62; 6HR MAX TEMP:  65; 6HR PCP:  0.20;                

LAMBERTVILLE   CLOUDY    64  64 100 NE3       29.58S FOG              
6HR MIN TEMP:  64; 6HR MAX TEMP:  67;                                

LANSING        LGT RAIN  60  59  96 NE6       29.63R                  
6HR MIN TEMP:  59; 6HR MAX TEMP:  63; 6HR PCP:  0.68;                

LAPEER         CLOUDY    60  60  98 NE5       29.63S                  
6HR MIN TEMP:  60; 6HR MAX TEMP:  61; 6HR PCP:  0.06;                

MASON          HVY RAIN  60  59  96 NE5       29.62S                  
6HR MIN TEMP:  60; 6HR MAX TEMP:  66;                                

MONROE         LGT RAIN  64  63  97 N5        29.58F                  
6HR MIN TEMP:  64; 6HR MAX TEMP:  66; 6HR PCP:  0.02;                

MT. CLEMENS    CLOUDY    62  62 100 N9        29.59S                  
6HR MIN TEMP:  61; 6HR MAX TEMP:  62; 6HR PCP:  0.01;                

PONTIAC        LGT RAIN  62  60  93 NE8       29.60R FOG              
6HR MIN TEMP:  61; 6HR MAX TEMP:  64; 6HR PCP:  0.03;                

PORT HOPE        N/A     54  53  97 N7        29.66S                  
6HR MIN TEMP:  53; 6HR MAX TEMP:  56; 6HR PCP:  0.15;                

PORT HURON     CLOUDY    61  57  88 N3        29.61S                  
TRI CITIES     CLOUDY    59  59 100 NE15      29.66F                  
6HR MIN TEMP:  59; 6HR MAX TEMP:  60; 6HR PCP:  0.23;                

MIDLAND        DRIZZLE   58  56  94 N6        29.66F                  
6HR MIN TEMP:  57; 6HR MAX TEMP:  58;                                

TROY           CLOUDY    63  58  86 NE10      29.62S                  
SAGINAW HB     LGT RAIN  61  59  94 N8        29.65S                  
$$
MIZ043>046-050>051-056>058-064>065-071>073-077>080-201300-
SOUTHWEST LOWER MICHIGAN
  
CITY           SKY/WX    TMP DP  RH WIND       PRES   REMARKS
BATTLE CREEK   LGT RAIN  63  62  97 NE12      29.60R                  
6HR MIN TEMP:  63; 6HR MAX TEMP:  66; 6HR PCP:  0.49;                

BENTON HARBOR  PTSUNNY   64  62  93 E8G17     29.57R                  
6HR MIN TEMP:  63; 6HR MAX TEMP:  66; 6HR PCP:  0.56;                

BIG RAPIDS     RAIN      59  58  95 NE7       29.67R                  
6HR MIN TEMP:  59; 6HR MAX TEMP:  62; 6HR PCP:  0.50;                

COLDWATER      HVY RAIN  63  63 100 E7        29.58R                  
6HR MIN TEMP:  62; 6HR MAX TEMP:  67;                                

FREMONT        DRIZZLE   60  59  96 E8        29.65S                  
6HR MIN TEMP:  60; 6HR MAX TEMP:  62;                                

HOLLAND        LGT RAIN  61  50  67 E9        29.62R                  
6HR MIN TEMP:  61; 6HR MAX TEMP:  64; 6HR PCP:  0.29;                

GRAND RAPIDS   LGT RAIN  60  58  92 NE10      29.63R                  
6HR MIN TEMP:  60; 6HR MAX TEMP:  62; 6HR PCP:  1.33;                

IONIA          RAIN      59  57  94 NE9       29.63R                  
6HR MIN TEMP:  59; 6HR MAX TEMP:  61; 6HR PCP:  0.92;                

KALAMAZOO      LGT RAIN  64  61  90 NE7       29.58R FOG              
6HR MIN TEMP:  64; 6HR MAX TEMP:  67; 6HR PCP:  1.23;                

LUDINGTON      CLOUDY    58  57  96 NE6       29.67S                  
6HR MIN TEMP:  58; 6HR MAX TEMP:  59; 6HR PCP:  0.03;                

MARSHALL       RAIN      62  62 100 NE5       29.59S                  
6HR MIN TEMP:  62; 6HR MAX TEMP:  65; 6HR PCP:  0.64;                

MOUNT PLEASANT RAIN      58  58  99 NE7       29.66S                  
6HR MIN TEMP:  57; 6HR MAX TEMP:  59; 6HR PCP:  0.43;                

MUSKEGON       LGT RAIN  61  57  87 NE8       29.64R                  
6HR MIN TEMP:  61; 6HR MAX TEMP:  65; 6HR PCP:  0.10;                

SOUTH HAVEN    LGT RAIN  63  62  96 NE10      29.59R                  
$$
MIZ016>042-201300-
NORTHERN LOWER MICHIGAN
  
CITY           SKY/WX    TMP DP  RH WIND       PRES   REMARKS
ALPENA         FAIR      57  53  86 NE7       29.72S                  
6HR MIN TEMP:  50; 6HR MAX TEMP:  57;                                

BEAVER ISLAND  FAIR      58  50  74 NE5       29.76S                  
BELLAIRE       FAIR      59  53  79 CALM      29.72S                  
CADILLAC       FAIR      60  57  91 NE8       29.69S                  
CHARLEVOIX     FAIR      59  51  74 E6        29.76S                  
6HR MIN TEMP:  52; 6HR MAX TEMP:  59;                                

FRANKFORT      FAIR      62  52  70 NE5       29.71S                  
GAYLORD        FAIR      54  52  93 NE7       29.73S                  
6HR MIN TEMP:  53; 6HR MAX TEMP:  55;                                

GRAYLING       FAIR      56  55  96 NE6       29.71R                  
6HR MIN TEMP:  49; 6HR MAX TEMP:  56;                                

HARBOR SPRINGS FAIR      58  51  77 E7        29.74S                  
HOUGHTON LAKE  CLOUDY    56  52  86 NE7       29.70F                  
6HR MIN TEMP:  55; 6HR MAX TEMP:  58; 6HR PCP: TRACE;                

MANISTEE       FAIR      59  55  87 E7        29.69R                  
OSCODA         PTSUNNY   55  55 100 NE7       29.69S                  
6HR MIN TEMP:  55; 6HR MAX TEMP:  57;                                

PELLSTON       FAIR      56  51  84 N6        29.76R                  
6HR MIN TEMP:  48; 6HR MAX TEMP:  56;                                

ROGERS CITY    FAIR      54  51  87 CALM      29.75S                  
TRAVERSE CITY  CLOUDY    58  53  84 N5        29.71R                  
6HR MIN TEMP:  56; 6HR MAX TEMP:  59;                                

$$
MIZ007>008-015-201300-
EASTERN UPPER MICHIGAN
  
CITY           SKY/WX    TMP DP  RH WIND       PRES   REMARKS
KINROSS        FAIR      56  47  71 NE8       29.78S                  
6HR MIN TEMP:  50; 6HR MAX TEMP:  56;                                

MACKINAC ISLAN FAIR      57  49  75 NE6       29.76S                  
6HR MIN TEMP:  53; 6HR MAX TEMP:  57;                                

NEWBERRY       FAIR      53  50  89 N5        29.79S                  
6HR MIN TEMP:  46; 6HR MAX TEMP:  53;                                

S. S. MARIE    FAIR      61  47  59 VRB5      29.78S                  
6HR MIN TEMP:  51; 6HR MAX TEMP:  61;                                

MUNISING         N/A     49  45  86 NW7       29.82R                  
6HR MIN TEMP:  42; 6HR MAX TEMP:  50;                                

$$
MIZ004>006-011>014-085-201300-
CENTRAL UPPER MICHIGAN
  
CITY           SKY/WX    TMP DP  RH WIND       PRES   REMARKS
MANISTIQUE     FAIR      55  51  85 N7        29.77S                  
6HR MIN TEMP:  48; 6HR MAX TEMP:  55;                                

ESCANABA       PTSUNNY   56  47  71 N8        29.79R                  
6HR MIN TEMP:  52; 6HR MAX TEMP:  56;                                

MENOMINEE      FAIR      55  48  77 N6        29.78R                  
6HR MIN TEMP:  52; 6HR MAX TEMP:  56;                                

SAWYER-GWINN   SUNNY     52  45  76 N8        29.82R                  
$$
MIZ001>003-009>011-084-201300-
WESTERN UPPER MICHIGAN
  
CITY           SKY/WX    TMP DP  RH WIND       PRES   REMARKS
IRON MOUNTAIN  CLOUDY    53  45  74 N5        29.81R                  
6HR MIN TEMP:  47; 6HR MAX TEMP:  53;                                

HOUGHTON       FAIR      57  47  69 CALM      29.85R                  
6HR MIN TEMP:  42; 6HR MAX TEMP:  57;                                

COPPER HARBOR    N/A     56  50  80 CALM      29.84R                  
6HR MIN TEMP:  46; 6HR MAX TEMP:  56;                                

IRONWOOD       FAIR      47  44  90 CALM      29.87R                  
6HR MIN TEMP:  40; 6HR MAX TEMP:  47;                                

$$

ABBREVIATIONS USED IN REMARKS
   TC - TEMPERATURE IN CELSIUS
  WCI - WIND CHILL INDEX
   HX - HEAT INDEX
  VSB - VISIBILITY